Location: Harwich
(41.6860°N, 70.0760°W)
Time: 09:36:56
(UTC-04:00)

Daily predictions for brighter satellites

Satellite Brightness Start Highest point End
(mag) Time Altitude Azimuth Time Altitude Azimuth Time Altitude Azimuth
Meteor 2-4 Rocket 4.0 20:30:48 10° S 20:36:16 53° E 20:41:54 10° NNE
Helios 1A 3.0 20:34:00 10° SSE 20:38:12 75° ENE 20:42:25 10° N
Cosmos 1437 Rocket 4.2 20:35:18 10° NNE 20:38:21 22° ENE 20:41:26 10° SE
CENTAUR R/B 3.5 20:33:16 10° NW 20:41:09 66° WSW 20:49:28 10° SSE
DEBRIS 3.5 20:39:35 10° SW 20:42:43 80° SE 20:52:42 10° ENE
SPOT 5 4.4 20:40:23 10° ESE 20:43:14 17° ENE 20:46:06 10° NNE
Cosmos 1943 Rocket 4.3 20:40:15 10° NW 20:44:40 24° WSW 20:49:01 10° SSW
ERS-1 Rocket 3.6 20:42:05 10° SE 20:46:45 40° ENE 20:51:25 10° N
Cosmos 1346 3.2 20:44:37 10° SSW 20:47:21 66° W 20:50:07 10° N
Meteor 2-13 Rocket 4.5 20:42:23 10° N 20:48:29 83° E 20:54:35 10° S
Cosmos 1980 Rocket 4.4 20:51:54 10° NNE 20:54:09 12° NE 20:56:24 10° ENE
DNEPR-1 R/B 4.0 20:50:15 10° NW 20:54:27 61° WSW 20:59:05 10° SSE
CZ-4B DEB 2.6 20:53:18 10° S 20:56:16 84° WSW 20:59:16 10° NNW
Helios 1B rocket 2.6 20:52:48 10° N 20:56:57 81° WNW 21:01:04 10° SSW
Meteor 1-29 2.9 20:58:01 10° N 21:01:25 84° WNW 21:04:46 10° SSW
Okean 1-7 Rocket 3.6 20:57:11 10° S 21:01:36 69° E 21:06:05 10° NNE
ARGOS 4.0 20:58:11 11° SE 21:02:44 34° ENE 21:07:35 10° N
CRYOSAT 2 4.4 20:58:32 10° SSE 21:03:17 61° E 21:08:05 10° N
Cosmos 405 Rocket 4.1 21:00:29 10° SSW 21:04:03 41° WNW 21:07:45 10° N
Cosmos 1238 Rocket 4.1 20:57:19 10° S 21:04:04 79° E 21:10:29 10° N
Aureole 3 Rocket 3.8 20:59:30 10° SSW 21:05:35 69° W 21:09:56 10° N
OAO 2 Rocket 4.0 21:02:14 10° WSW 21:06:44 36° S 21:10:26 14° SE
Cosmos 2341 Rocket 4.5 21:01:54 10° N 21:08:01 47° ENE 21:13:30 13° SSE
ISS -2.4 21:05:14 10° WSW 21:08:24 43° NNW 21:11:34 10° NE
Aureole 1 Rocket 3.4 21:05:38 10° SW 21:08:44 45° WNW 21:11:37 10° N
Cosmos 1606 Rocket 3.9 21:05:48 10° N 21:09:58 45° ENE 21:13:20 15° SSE
Cosmos 1441 Rocket 3.5 21:07:49 10° SSW 21:11:32 67° W 21:15:16 10° N
NOAA 11 4.4 21:08:53 12° SSE 21:13:48 58° ENE 21:19:08 10° N
ASTEX 1 3.4 21:08:56 10° S 21:13:50 85° E 21:18:45 10° N
Meteor 1-23 Rocket 4.2 21:10:31 10° S 21:16:05 88° E 21:21:45 10° N
Intercosmos 24 3.6 21:13:00 10° N 21:16:47 76° E 21:19:46 14° SSE
Cosmos 1025 Rocket 3.0 21:13:45 10° S 21:18:01 88° WNW 21:22:19 10° N
Cosmos 1726 Rocket 3.9 21:15:08 10° N 21:19:19 48° ENE 21:22:18 18° SSE
MetOp-B 4.3 21:15:54 14° SSE 21:20:26 61° ENE 21:25:43 10° N
Lacrosse 5 rocket 4.3 21:19:25 10° NNW 21:21:25 12° N 21:23:25 10° NE
Okean 2 3.3 21:19:59 10° S 21:24:03 83° E 21:28:10 10° N
Cosmos 1624 Rocket 4.0 21:20:53 10° NNW 21:26:12 88° ENE 21:30:27 16° SSE
USA 245 3.3 21:26:05 25° E 21:26:35 27° ENE 21:28:37 10° NNE
Cosmos 2082 Rocket 2.6 21:26:02 10° S 21:31:17 41° ESE 21:36:33 10° NE
H-2A R/B 2.8 21:28:37 19° SE 21:31:37 37° ENE 21:36:14 10° N
Cosmos 2278 3.8 21:26:41 10° NNW 21:32:22 66° ENE 21:36:16 21° SE
NOSS 8 (E) 4.4 21:32:35 10° SSW 21:36:00 69° ESE 21:39:41 10° NE
Cosmos 2058 Rocket 3.3 21:32:07 10° N 21:36:29 55° E 21:39:01 24° SSE
MOS 1-B Rocket 4.0 21:32:35 15° SSE 21:37:26 87° ENE 21:44:02 10° NNW
Meteor 1-15 Rocket 4.4 21:31:59 10° NNW 21:37:34 72° W 21:42:38 12° S
Cosmos 2181 Rocket 4.1 21:31:33 10° S 21:37:46 65° E 21:43:58 10° NNE
PSLV R/B 4.3 21:35:26 10° W 21:38:08 27° SSW 21:38:46 25° S
YAOGAN 11 4.0 21:38:19 22° SSE 21:41:04 78° ENE 21:45:25 10° N
Cosmos 2056 Rocket 3.7 21:40:32 10° NNW 21:45:39 66° WSW 21:49:16 19° S
YAOGAN 6 4.3 21:43:29 10° SSW 21:46:31 28° W 21:49:35 10° NW
Meteor 1-4 Rocket 3.4 21:45:05 10° N 21:48:22 33° ENE 21:49:11 29° ESE
Cosmos 1697 Rocket 3.2 21:45:05 10° NNW 21:50:30 46° ENE 21:53:32 24° ESE
Cosmos 2369 3.7 21:46:49 10° NNW 21:52:35 87° WSW 21:56:03 25° SSE
Cosmos 1656 3.7 21:48:23 10° NNW 21:53:51 69° ENE 21:56:49 28° SE
Cosmos 839 Rocket 4.4 21:47:17 10° NNW 21:53:54 81° WSW 21:59:18 23° SSE
H-2A R/B 3.3 21:54:53 23° ESE 21:56:33 30° ENE 22:00:29 10° N
SL-16 R/B 4.4 21:54:52 10° NNE 21:57:47 14° NE 22:00:42 10° ENE
Landsat 7 4.2 21:56:48 29° SE 21:58:52 48° ENE 22:03:27 10° N
Cosmos 1420 Rocket 4.5 21:57:35 10° N 22:02:40 47° ENE 22:04:56 29° ESE
Tiangong 2 1.3 21:59:48 10° W 22:02:59 69° N 22:04:05 36° ENE
Cosmos 1833 Rocket 2.6 22:01:02 11° SSW 22:06:22 74° ESE 22:12:01 10° NNE
Cosmos 1626 Rocket 3.8 22:05:32 37° SE 22:06:45 50° E 22:10:56 10° NNE
Terra 2.3 22:12:16 34° ESE 22:13:53 48° ENE 22:18:28 10° N
COSMOS 2487 3.5 22:10:54 12° SW 22:14:00 45° WNW 22:17:28 10° N
SL-8 Rocket 4.0 22:09:00 10° N 22:15:17 86° W 22:18:59 27° S
Cosmos 1271 Rocket 3.8 22:13:34 10° NNE 22:17:03 30° ENE 22:17:24 30° E
Cosmos 1452 Rocket 3.5 22:12:17 10° NNW 22:17:35 85° WSW 22:19:50 36° SSE
Cosmos 2228 3.5 22:16:35 10° NNW 22:20:47 55° W 22:22:37 30° SSW
SPOT 5 3.5 22:18:47 24° SSW 22:20:58 43° W 22:25:09 10° NNW
TELKOM 3 3.8 22:18:32 10° WNW 22:20:42 57° WSW 22:20:42 57° WSW
Cosmos 2366 rocket 3.9 22:15:27 10° N 22:21:38 79° E 22:24:34 33° SSE
USA 267 4.5 22:17:12 10° ENE 22:20:39 20° ESE 22:20:39 20° ESE
Cosmos 921 Rocket 4.2 22:18:36 10° NW 22:22:42 36° W 22:24:47 23° SSW
SPOT 1/Viking Rocket 3.7 22:20:35 29° S 22:23:10 66° WSW 22:28:18 10° NNW
Cosmos 1066 Rocket 4.2 22:20:34 21° SSW 22:24:18 78° W 22:29:59 10° N
Lacrosse 5 4.0 22:38:34 12° E 22:38:34 12° E 22:39:13 10° ENE
Spot 4 4.5 22:34:42 36° ESE 22:35:47 42° ENE 22:40:18 10° N
Cosmos 1544 3.8 22:35:06 10° N 22:38:17 41° ENE 22:38:17 41° ENE
Cosmos 1980 Rocket 2.2 22:33:38 10° NNW 22:39:17 68° ENE 22:41:05 43° SE
Cosmos 1953 3.6 22:35:46 10° NNE 22:39:20 28° ENE 22:39:20 28° ENE
Cosmos 1602 Rocket 3.7 22:40:41 42° SSW 22:42:01 68° W 22:46:21 10° N
ISS -0.7 22:43:22 10° NW 22:45:32 16° N 22:47:41 10° NNE
Cosmos 2322 Rocket 3.4 22:45:13 10° N 22:50:18 32° NE 22:52:24 25° E
Cosmos 1766 3.2 22:47:01 10° NNW 22:50:55 73° W 22:51:05 71° WSW
Meteor 1-21 4.2 22:49:13 42° S 22:51:17 87° E 22:57:04 10° N
USA 229 DEB 3.8 22:45:29 10° NW 22:52:41 82° NE 22:55:40 39° SE
USA 229 3.8 22:45:36 10° NW 22:52:48 82° NE 22:55:46 39° SE
deb Chang Zheng 4 3.5 22:49:25 10° NNE 22:53:44 85° WNW 22:54:23 64° SSW
Meteor 2-14 Rocket 4.5 22:50:29 10° NNW 22:56:32 72° W 22:58:47 40° SSW
Timation 2 Rocket 4.1 22:52:15 18° SSW 22:57:13 73° WNW 23:03:22 10° NNE
Lacrosse 5 rocket 3.4 22:58:08 10° NNW 23:02:06 27° NNE 23:04:30 18° ENE
Cosmos 158 Rocket 4.2 23:02:36 36° SW 23:04:47 70° WNW 23:10:11 10° NNE
Cosmos 1470 4.1 23:02:55 10° NNE 23:06:03 30° ENE 23:06:03 30° ENE
CARTOSAT-1 4.2 23:07:09 42° WSW 23:07:41 44° W 23:11:49 10° NNW
DELTA 2 DEB (DPAF) 4.0 23:08:27 75° ESE 23:08:42 79° ENE 23:13:13 10° N
H-2A R/B 3.6 23:09:14 20° SW 23:11:06 25° W 23:15:17 10° NW
CZ-2C R/B 3.9 23:07:05 10° NE 23:11:39 26° E 23:11:39 26° E
CZ-4B R/B 3.5 23:09:48 10° NNE 23:14:54 83° WNW 23:16:02 56° SSW
Cosmos 2082 Rocket 3.9 23:10:29 10° WSW 23:15:27 31° NW 23:20:26 10° N
Cosmos 494 Rocket 4.2 23:17:12 50° E 23:17:12 50° E 23:22:00 10° NNE
CZ-4 R/B 4.2 23:13:54 10° N 23:18:53 63° WNW 23:20:15 45° SW
Cosmos 1805 3.7 23:17:19 10° NNW 23:20:47 55° WNW 23:20:47 55° WNW
Cosmos 1758 3.5 23:17:38 10° N 23:21:12 67° NW 23:21:12 67° NW
Nadezhda 3 Rocket 4.3 23:27:58 40° SSW 23:30:17 65° W 23:36:38 10° N
Cosmos 1758 Rocket 3.5 23:30:38 77° N 23:30:38 77° N 23:34:43 10° N
H-2A R/B 3.6 23:32:00 26° WSW 23:32:30 27° W 23:36:21 10° NW
Cosmos 1697 Rocket 4.1 23:29:40 10° NW 23:34:09 25° WSW 23:35:16 23° WSW
ATLAS CENTAUR R/B 2.2 23:31:46 10° NNW 23:34:34 41° NNE 23:34:34 41° NNE
Cosmos 2239 Rocket 4.4 23:29:47 10° N 23:35:58 83° W 23:37:17 58° S
SL-16 R/B 2.1 23:37:10 10° NNW 23:42:51 79° ENE 23:43:34 67° SE
Cosmos 1821 Rocket 4.0 23:38:58 10° NNW 23:45:15 73° W 23:46:36 55° SSW
Cosmos 389 Rocket 4.3 23:46:11 10° NNW 23:48:14 28° NW 23:48:14 28° NW
Cosmos 972 Rocket 3.9 23:46:40 10° NNW 23:51:48 71° WSW 23:51:48 71° WSW
Terra 3.8 23:51:09 17° WSW 23:51:52 18° W 23:55:07 10° NW
Cosmos 1331 Rocket 3.9 23:47:09 10° NNW 23:52:17 70° WSW 23:52:20 70° WSW
